Powrót do katalogu

SL-12 R/B(2)

AktywnyUNKNOWN
NORAD 24829·ROCKET BODY·🇷🇺 Russia

Wystrzelony Jun 6, 1997 z Baikonur Cosmodrome

Loading…

Następne Przeloty (najbliższe 24 godziny)

TLE

ŚwieżeSource: Space-Track

Epoka: Sep 14, 2026, 13:44 UTC

1 24829U 97028C   26257.57262426  .00000102  00000-0  15933-2 0  9993
2 24829  63.3168 100.3881 1094824  47.5881 346.5432 11.07256784183657

Śledź SL-12 R/B(2) w czasie rzeczywistym z AllMySat

Download on the App Store